Regional Weather Roundup
Issued by NWS State College, PA

Home | Current Version | Previous Version | Graphics & Text | Print | Product List | Glossary On
Versions: 1 2 3 4 5 6 7 8 9 10 11 12 13 14 15 16 17 18 19 20 21 22 23 24 25 26 27 28 29 30 31 32 33 34 35 36 37 38 39 40 41 42 43 44 45 46 47 48 49 50
000
ASUS41 KCTP 291003
RWRCTP

REGIONAL WEATHER ROUNDUP
NATIONAL WEATHER SERVICE STATE COLLEGE PA
500 AM EST THU JAN 29 2015

Note: "fair" indicates few or no clouds below 12,000 feet with no
significant weather and/or obstructions to visibility.

* = STATION THAT DOES NOT REPORT PRECIPITATION /E.G. RAIN...SNOW...ETC/
    THUNDER OR FOG.

PAZ002>004-007>009-013>016-020>023-029>032-291100-
WESTERN PENNSYLVANIA

CITY           SKY/WX    TMP DP  RH WIND       PRES   REMARKS
ERIE           CLOUDY    26   5  40 S15       30.08F WCI  14
MEADVILLE      CLOUDY    20   8  60 VRB6      30.07F WCI  12
FRANKLIN*      CLOUDY    18   9  68 SE9       30.12F WCI   6
NEW CASTLE     FAIR      22  12  65 CALM      30.13F
BEAVER COUNTY  NOT AVBL
BUTLER*        CLOUDY    18  10  73 E9        30.14F WCI   6
PITTSBURGH INT CLOUDY    20  13  74 SE7       30.12F WCI  11
PITTSBURGH     CLOUDY    18   9  68 SE6       30.12F WCI  10
INDIANA*       CLOUDY    14   9  79 E5        30.21F WCI   6
LATROBE        CLOUDY    16  12  86 CALM      30.17F
WASHINGTON CO* CLOUDY    19  16  86 CALM      30.13F
$$

PAZ004>006-010>012-017>019-024>028-033>037-041-042-045-046-049>053-291100-
CENTRAL PENNSYLVANIA

CITY           SKY/WX    TMP DP  RH WIND       PRES   REMARKS
BRADFORD       CLOUDY     7   0  73 SE6       30.12F WCI  -3
DUBOIS         CLOUDY    14   6  70 E9        30.14F WCI   2
CLEARFIELD     PTCLDY     3  -1  83 N6        30.21F WCI  -8
JOHNSTOWN      MOCLDY    16   3  56 S5        30.12F WCI   9
ALTOONA        PTCLDY    11   4  73 CALM      30.21F
STATE COLLEGE  PTCLDY     6   3  86 S3        30.25S
WILLIAMSPORT   PTCLDY     5  -2  72 N5        30.32F WCI  -4
SELINSGROVE    PTCLDY     1  -4  79 CALM      30.33S
FT INDIANTOWN  PTCLDY     6   0  74 CALM      30.30F
CAPITAL CITY   PTCLDY     2   2 100 W5        30.32F WCI  -8
HARRISBURG     PTCLDY    15   6  67 NW9       30.31F WCI   3
YORK           PTCLDY     2  -1  88 CALM      30.31S
$$

PAZ038>040-043-044-047-048-054-055-060>062-067>071-291100-
EASTERN PENNSYLVANIA

CITY           SKY/WX    TMP DP  RH WIND       PRES   REMARKS
SCRANTON       PTCLDY     7   1  76 E6        30.27F WCI  -3
MOUNT POCONO   CLEAR      1  -4  79 W3        30.18S
ALLENTOWN      PTCLDY    13   3  64 SW3       30.30S
QUAKERTOWN*    MOSUNNY    5   0  78 CALM      30.30R
READING        PTCLDY     9   1  70 NW3       30.30F
LANCASTER      PTCLDY    11   3  70 CALM      30.30S
COATESVILLE    MOSUNNY   21   3  45 N5        30.28S WCI  15
POTTSTOWN      PTCLDY     8   1  73 CALM      30.32R
BLUE BELL      PTCLDY    14   5  67 CALM      30.31R
DOYLESTOWN     PTCLDY    14   3  61 CALM      30.29R
WILLOW GROVE   NOT AVBL
NORTH PHILA    CLEAR     20   2  45 CALM      30.33R
PHILADELPHIA   CLEAR     22   3  44 NW6       30.33R WCI  14
$$


USA.gov is the U.S. government's official web portal to all federal, state and local government web resources and services.